Content
SEND FEEDBACK

Daily
Averages
Monthly
Summary
United States of America

ST. LOUIS, MISSOURI


Home > North America > United States > Missouri
Elevation: 163 meters     Latitude: 38 45N     Longitude: 090 22W

WEATHER
 
SELECT A DAY
Number of Records: 196,588;   Date Range: 1/1/95 - 9/3/14
 
SHARE

PRINT THIS DATA

[ ← Previous Day ]
WEATHER ALMANAC - 20 FEBRUARY, 2013
[ Next Day → ]
[ °F ]   °C
Weather ElementAverageHighLow
Temperature-5.4 °C-3.3 °C (1:54 pm)-7.8 °C (4:54 am)
Dewpoint-12.3 °C-11 °C (8:54 pm)-13.9 °C (3:54 am)
Humidity59 %68 % (10:54 pm)51 % (12:54 pm)
Barometer1028.4 hPa1031.2 hPa (9:54 am)1026.4 hPa (8:54 pm)
Wind Speed8 km/h14.8 km/h (3:54 pm)
Weather ElementAverage
Visibility16.1 km
Wind DirectionSSE (142.6 °)

Weather ElementTotal
Precipitation---
Heating Degree Days23.9 (Base 18.3)
Averaged from 23 records on 20 February, 2013
WEATHER CONDITIONS BREAKOUT
WIND DIRECTION BREAKOUT
WEATHER BY HOUR - 20 FEBRUARY, 2013
[ °F ]   °C
Local TimeTemperatureDewpointHumidityBarometerVisibilityWind DirectionWind SpeedGust SpeedPrecipitationEventsConditions
1:54 AM-6.1 °C-12.8 °C60 %1027.8 hPa16.1 kmWest (280°)7.4 km/hClear
2:54 AM-6.7 °C-13.3 °C60 %1027.4 hPa16.1 kmNNW (330°)7.4 km/hClear
3:54 AM-6.7 °C-13.9 °C57 %1027.4 hPa16.1 kmNW (320°)9.3 km/hClear
4:54 AM-7.8 °C-13.9 °C62 %1028.4 hPa16.1 kmNW (310°)7.4 km/hClear
5:54 AM-7.8 °C-13.3 °C65 %1028.8 hPa16.1 kmNW (310°)5.6 km/hClear
6:54 AM-7.2 °C-13.3 °C62 %1029.1 hPa16.1 kmNorth (360°)9.3 km/hClear
7:54 AM-6.7 °C-12.8 °C62 %1030.1 hPa16.1 kmNorth (350°)9.3 km/hMostly Cloudy
8:54 AM-7 °C-13 °C63 %1029.8 hPa16.1 kmNorth (10°)7.4 km/hOvercast
9:54 AM-5.6 °C-12.8 °C58 %1031.2 hPa16.1 kmCalmOvercast
10:54 AM-5 °C-12.2 °C58 %1031.2 hPa16.1 kmVariable5.6 km/hOvercast
11:54 AM-4.4 °C-12.2 °C55 %1030.5 hPa16.1 kmNorth (350°)5.6 km/hClear
12:54 PM-3.9 °C-12.8 °C51 %1030.5 hPa16.1 kmCalmOvercast
1:54 PM-3.3 °C-12.2 °C51 %1028.8 hPa16.1 kmVariable9.3 km/hOvercast
2:54 PM-3.3 °C-11.7 °C53 %1028.8 hPa16.1 kmEast (80°)5.6 km/hOvercast
3:54 PM-3.3 °C-11.1 °C55 %1027.8 hPa16.1 kmENE (70°)14.8 km/hOvercast
4:54 PM-3.9 °C-12.2 °C53 %1027.4 hPa16.1 kmENE (70°)14.8 km/hMostly Cloudy
5:54 PM-3.9 °C-11.7 °C55 %1027.4 hPa16.1 kmENE (70°)13 km/hMostly Cloudy
6:54 PM-5 °C-11.7 °C60 %1027.4 hPa16.1 kmENE (60°)11.1 km/hMostly Cloudy
7:54 PM-5.6 °C-11.7 °C63 %1027.8 hPa16.1 kmEast (90°)5.6 km/hPartly Cloudy
8:54 PM-4 °C-11 °C59 %1026.4 hPa16.1 kmENE (60°)11.1 km/hOvercast
9:54 PM-4.4 °C-11.1 °C60 %1027.8 hPa16.1 kmEast (80°)14.8 km/hOvercast
10:54 PM-6 °C-11 °C68 %1026.4 hPa16.1 kmEast (80°)11.1 km/hScattered Clouds
11:54 PM-6.1 °C-11.1 °C68 %1027.8 hPa16.1 kmCalmClear
Hourly data recorded from KSUS, located 0 kilometers away from St. Louis, Missouri







STORIES FROM OUR PARTNERS